Unbenanntes Dokument
Flugplatz Bielefeld Platzwetter

 

Aktuelles Platzwetter am Flugplatz Bielefeld EDLI

20.11.18 ,07:52 Uhr

METAR EDLI 200752Z 08015G28KT 9999 ///019 01/M00 Q1013

 

Windwerte

 

Wolkenuntergrenzen

Wind aktuell:080 ° mit 12 kt
Wind 10 min Extrem:
40 ° bis 110 ° mit 8 kt bis 28 kt
Seitenwindkomponente: -7.6 kt
Wolkengrenze 1: 1700 ft
Wolkengrenze 2:
Wolkengrenze 3:

Webcam

Temperatur

       

Sichtweite:

20.000 Meter

1.9 °C
Taupunkt: -0.2 °C
Luftfeuchtigkeit: 85 %

Luftdruck:

QNH: 1013 hPa (29.91 in Hg)
QFE: 997 hPa (29.44 in Hg)

Diese Daten werden automatisch ermittelt bzw. übertragen und sind nicht geprüft. Für die Richtigkeit wird daher keine Gewähr übernommen. Sie ersetzen im übrigen nicht die Flugwetterberatung. Alle Zeitangaben beziehen sich auf UTC. Die Seite wird einmal die Minute aktualisiert! Sollten Sie ein ältere Seite haben, so drücken Sie bitte auf den Reload Button Ihres Browsers!